Location: Brzeg Dolny
(51.2709°N, 16.7199°E)
Time: 05:09:28
(UTC+02:00)

ISS - Visible Passes

Search period start: 26 September 2018 00:00
Search period end: 06 October 2018 00:00
Orbit: 403 x 408 km, 51.6° (Epoch: 26 September)

Date Brightness Start Highest point End Pass type
(mag) Time Alt. Az. Time Alt. Az. Time Alt. Az.
26 Sep -3.7 20:12:09 10° WSW 20:15:23 55° SSE 20:16:23 37° ESE visible
26 Sep -0.8 21:48:32 10° W 21:49:04 14° W 21:49:04 14° W visible
27 Sep -3.1 19:20:28 10° SW 19:23:34 38° SSE 19:26:35 11° E visible
27 Sep -3.2 20:56:37 10° W 20:59:15 54° W 20:59:15 54° W visible
28 Sep -3.9 20:04:42 10° WSW 20:08:01 80° SSE 20:09:23 32° E visible
28 Sep -0.9 21:41:15 10° W 21:42:03 16° W 21:42:03 16° W visible
29 Sep -3.7 19:12:50 10° WSW 19:16:06 62° SSE 19:19:23 10° E visible
29 Sep -3.4 20:49:17 10° W 20:52:07 61° WNW 20:52:07 61° WNW visible
30 Sep -3.8 19:57:19 10° W 20:00:38 84° N 20:02:08 30° E visible
30 Sep -1.0 21:33:52 10° W 21:34:48 17° W 21:34:48 17° W visible
01 Oct -3.8 19:05:22 10° WSW 19:08:40 86° S 19:11:59 10° E visible
01 Oct -3.5 20:41:54 10° W 20:44:47 65° W 20:44:47 65° W visible
02 Oct -3.8 19:49:55 10° W 19:53:14 82° N 19:54:46 29° E visible
02 Oct -1.0 21:26:28 10° W 21:27:26 18° W 21:27:26 18° W visible
03 Oct -3.8 18:57:55 10° W 19:01:14 82° N 19:04:33 10° E visible
03 Oct -3.5 20:34:28 10° W 20:37:24 62° WSW 20:37:24 62° WSW visible
04 Oct -3.9 19:42:27 10° W 19:45:46 85° SSW 19:47:23 28° ESE visible
04 Oct -1.0 21:19:06 10° W 21:20:03 16° W 21:20:03 16° W visible
05 Oct -3.0 20:27:00 10° W 20:30:03 44° SSW 20:30:03 44° SSW visible
